SCP
3 3 3 3 2 1 0 0 0 0 0 0 0 0 0 0 0 0 0 0 0 0 1 1 1 1 1 1 1 1 1 2 2 1 1 0 0 0 0 0 0 0 0
3 3 3 2 1 1 0 0 0 0 0 0 0 0 0 0 0 0 0 0 0 0 1 1 1 1 1 1 1 2 2 2 1 1 0 0 0 0 0 0 0 0 0
3 2 2 2 1 1 0 0 0 0 0 0 0 0 0 0 0 0 0 0 0 1 1 2 2 2 2 2 2 2 2 1 1 0 0 0 0 0 0 0 0 0 0
3 2 2 1 1 1 1 0 0 0 0 0 0 0 0 0 0 0 0 0 0 1 1 2 2 2 2 2 2 1 1 0 0 0 0 0 0 0 0 0 1 1 1
2 2 2 1 1 1 1 1 0 0 0 0 0 0 0 0 0 0 0 0 0 1 1 1 1 2 2 1 1 1 0 0 0 0 0 0 0 0 0 1 1 1 1
1 2 2 1 1 1 1 1 1 1 1 0 0 0 0 0 0 0 0 0 0 0 1 1 1 1 1 1 0 0 0 0 0 0 0 0 0 0 0 1 1 1 1
1 1 1 1 1 1 1 1 1 1 1 0 0 0 0 0 0 0 0 0 0 0 0 0 0 0 0 0 0 0 0 0 0 0 0 0 0 1 1 1 1 1 1
0 0 0 1 1 1 1 1 1 1 0 0 0 0 0 0 0 0 0 0 0 0 0 0 0 0 0 0 0 0 0 0 0 0 0 0 0 1 1 1 1 1 0
1 0 0 0 1 1 1 1 1 1 0 0 0 0 0 0 0 0 0 0 0 0 0 0 0 0 0 0 0 0 0 0 0 0 0 0 0 1 1 1 1 1 1
1 0 0 0 1 1 1 1 1 1 0 0 0 0 0 0 0 0 0 0 0 0 0 0 0 0 0 0 0 0 0 0 0 0 0 0 0 0 1 1 1 1 1
0 0 0 0 1 1 1 0 0 0 0 0 0 0 0 0 0 0 0 0 0 0 0 0 0 0 0 0 0 0 0 0 0 0 0 0 0 0 1 1 1 1 1
0 0 0 0 0 0 0 0 0 0 0 0 0 0 0 0 0 0 0 0 0 0 0 0 0 0 0 0 0 0 0 0 0 0 0 0 0 0 0 0 1 1 0
0 0 0 0 0 0 0 0 0 0 0 0 0 0 0 0 1 1 1 1 0 0 0 0 0 0 0 0 0 0 0 0 0 0 0 0 0 0 0 0 0 0 0
0 0 0 0 0 0 0 0 0 0 0 0 0 0 0 0 0 1 1 1 1 0 0 0 0 0 0 0 0 0 0 0 0 0 0 0 0 0 0 0 0 0 0
0 0 0 0 0 0 0 0 0 0 0 0 0 0 0 0 0 0 1 1 1 0 0 0 0 0 0 0 0 0 0 0 0 0 0 0 0 0 0 0 0 0 0
0 0 0 0 0 0 0 0 0 0 0 0 0 0 0 0 0 0 0 0 1 1 0 0 0 0 0 0 0 0 0 0 0 0 0 0 0 0 0 0 0 0 0
0 0 0 0 0 0 0 0 0 0 0 0 0 0 0 0 0 0 0 0 0 0 0 0 0 0 0 0 0 0 0 0 0 0 0 0 0 0 0 0 0 0 0
0 0 0 0 0 0 0 0 0 0 0 0 0 0 0 0 0 0 0 0 0 0 0 0 0 0 0 0 0 0 0 0 0 0 0 0 0 0 0 0 0 0 0
0 0 0 0 0 0 0 0 0 0 0 0 0 0 0 0 0 0 0 0 0 0 0 0 0 0 0 0 0 0 0 0 0 0 0 0 0 0 0 0 0 0 0
0 0 0 0 0 0 0 0 0 0 0 0 0 0 0 0 0 0 0 0 0 0 0 0 0 0 0 0 0 0 0 0 0 0 0 0 0 0 0 0 0 0 0
0 0 0 0 0 0 0 0 0 0 0 0 0 0 0 0 0 0 0 0 0 0 0 0 0 0 0 0 0 0 0 0 0 0 0 0 0 0 0 0 0 0 0
0 0 0 0 0 0 0 0 0 0 0 0 0 0 0 0 0 0 0 0 0 0 0 0 0 0 0 0 0 0 0 0 0 0 0 0 0 0 0 0 0 0 0
0 0 0 0 0 0 0 0 0 0 0 0 0 0 0 0 0 0 0 0 0 0 0 0 0 0 0 0 0 0 0 0 0 0 0 0 0 0 0 0 0 0 0
0 0 0 0 0 0 0 0 0 0 0 0 0 0 0 0 0 0 0 0 0 0 0 0 0 0 0 0 0 0 0 0 0 0 0 0 0 0 0 0 0 0 0
0 0 0 0 0 0 0 0 0 0 0 0 0 0 0 0 0 0 0 0 0 0 0 0 0 0 0 0 0 0 0 0 0 0 0 0 0 0 0 0 0 0 0
0 0 0 0 0 0 0 0 0 0 0 0 0 0 0 0 0 0 0 0 0 0 0 0 0 0 0 0 0 0 0 0 0 0 0 0 0 0 0 0 0 0 0
Wind_Speed
3 3 2 2 2 2 2 1 1 1 1 1 1 1 2 3 3 3 3 5 5 5 5 5 5 6 6 6 6 7 8 8 9 9 10 10 11 11 11 11 12 12 12
3 3 2 2 2 2 1 1 1 1 1 1 1 1 1 2 3 3 3 3 5 5 4 5 5 5 5 6 7 7 8 8 9 10 10 11 11 11 12 12 12 12 13
2 2 3 2 2 1 1 1 1 1 1 1 1 1 1 2 2 3 3 3 2 4 4 4 4 4 5 6 7 7 8 9 9 10 11 11 11 12 12 12 13 13 13
2 2 2 2 2 2 1 2 2 1 1 1 1 1 1 1 1 2 2 2 2 2 2 3 3 4 5 6 6 7 8 9 10 10 11 11 12 12 13 13 13 13 14
2 2 2 2 3 2 1 2 2 2 1 0 1 1 1 1 1 2 2 2 2 2 1 1 2 3 4 6 6 7 8 9 10 11 11 12 12 13 13 13 13 14 14
2 1 2 3 3 2 2 2 2 1 1 1 0 1 1 1 1 2 2 2 2 2 2 1 1 1 4 5 7 8 8 9 10 11 11 12 12 13 13 13 14 14 15
1 2 1 2 2 3 3 3 2 2 1 1 1 0 1 1 1 2 2 2 2 2 2 1 1 1 1 4 6 8 9 10 10 11 11 12 13 13 14 14 14 14 15
1 1 2 2 2 2 3 2 2 1 1 1 2 1 0 1 1 2 2 2 2 2 2 1 1 0 0 0 3 7 9 10 11 11 12 12 13 14 14 15 15 15 15
0 1 2 2 3 3 3 2 2 2 1 1 1 2 2 2 1 1 1 1 1 1 1 1 1 1 0 0 1 4 8 10 11 11 12 13 14 14 15 15 15 16 16
0 1 1 2 3 3 3 3 2 1 2 2 0 0 1 1 1 1 1 1 1 1 1 1 1 1 0 0 2 5 8 10 11 12 13 14 14 15 15 16 16 16 16
0 1 1 2 2 2 3 3 2 2 2 2 1 0 0 0 0 1 1 1 1 1 1 1 1 0 1 1 1 4 8 10 11 12 13 14 15 15 16 16 16 16 17
0 0 1 2 2 2 2 2 2 2 2 2 1 1 1 1 0 1 1 1 2 2 1 0 0 0 1 1 2 7 8 10 11 12 12 13 14 15 16 16 17 17 17
1 0 1 1 1 2 2 2 2 2 2 3 2 1 1 0 1 1 1 1 1 2 1 0 0 1 1 1 2 7 8 10 11 12 12 13 14 14 15 16 17 17 18
1 1 1 1 2 2 2 2 2 2 2 3 2 2 1 0 1 1 1 1 1 2 1 1 1 0 1 1 4 7 5 10 11 12 13 13 13 14 15 16 16 17 18
1 1 1 1 1 2 2 2 2 2 2 2 2 2 1 1 1 0 1 1 1 1 2 2 1 1 2 2 5 3 4 9 11 12 13 13 13 14 15 15 16 16 17
1 2 2 1 1 2 2 2 2 2 2 2 2 2 1 1 1 1 0 0 1 1 2 2 2 3 3 4 6 4 4 10 10 12 13 13 13 14 14 15 16 16 17
2 2 1 1 1 2 3 3 2 2 2 2 2 2 2 1 1 0 0 0 1 1 2 3 2 2 3 4 5 4 4 4 5 11 13 14 14 14 14 15 15 16 17
2 2 1 1 1 2 2 3 3 3 3 3 2 2 2 1 1 1 1 0 1 1 1 3 3 3 3 4 4 5 5 5 5 10 13 14 14 14 15 15 16 16 17
1 2 2 1 1 1 2 2 2 2 2 2 2 2 1 1 1 0 0 0 1 1 1 1 3 3 3 3 4 5 6 5 6 7 11 12 14 15 15 15 15 16 16
1 2 2 1 1 1 2 2 2 2 2 2 2 2 2 2 1 1 0 0 0 0 1 1 2 2 3 3 3 4 6 5 6 6 7 9 12 14 14 15 15 15 16
2 2 2 1 1 1 1 2 2 2 2 2 2 2 2 2 1 0 0 1 0 0 1 1 2 2 3 3 4 3 5 6 6 4 5 6 6 5 7 11 13 15 16
2 2 2 1 1 1 1 2 2 2 2 2 2 1 1 1 1 0 1 1 1 1 1 1 2 3 4 3 3 4 4 5 5 4 6 7 5 5 5 5 12 16 15
2 2 2 1 1 1 1 1 2 1 2 1 2 1 0 1 1 0 1 2 2 2 2 1 2 3 3 3 3 4 4 4 5 5 5 6 5 6 6 8 15 15 15
2 2 2 1 1 1 1 0 1 2 1 1 1 2 1 1 1 1 1 1 1 1 2 1 1 3 3 2 2 3 4 5 5 3 3 4 5 6 7 6 12 15 16
1 1 1 1 1 1 1 1 1 1 1 1 1 1 2 1 1 2 1 1 2 2 4 5 5 4 6 6 5 2 3 4 5 4 2 2 4 6 6 4 7 14 16
1 1 1 1 1 1 1 1 2 1 1 1 1 1 2 2 2 2 1 1 1 2 2 3 4 4 4 4 6 2 2 3 3 4 3 4 4 5 6 4 5 7 8
Wind_Direction
148 147 149 142 145 144 153 165 146 128 118 125 117 103 100 107 115 114 103 88 80 74 67 55 44 35 30 26 21 14 7 3 1 358 354 350 345 342 339 337 336 334 330
141 145 139 139 141 150 161 154 134 122 113 106 97 90 95 111 119 121 118 93 81 76 66 53 40 30 24 25 21 13 6 1 357 353 350 348 344 341 337 335 333 330 328
128 146 140 143 153 152 151 127 107 89 94 95 107 97 87 94 110 118 124 124 107 83 70 52 34 25 22 20 15 9 2 357 354 351 349 346 343 338 335 332 330 328 326
131 135 142 149 150 136 131 123 121 106 104 126 151 136 116 107 114 119 118 118 117 103 76 62 34 17 14 11 8 4 357 353 350 347 345 344 340 336 333 332 331 329 328
116 119 150 147 139 130 130 138 129 137 130 155 168 143 141 144 152 128 122 121 118 112 108 81 45 15 8 4 359 355 353 351 348 345 345 342 339 337 334 334 332 330 328
128 126 146 148 137 135 139 133 136 126 137 160 135 122 174 163 147 145 153 144 141 132 121 111 84 14 3 356 353 350 350 347 345 345 344 341 338 335 334 333 331 329 328
103 135 144 144 141 147 154 150 144 137 140 120 92 30 306 212 170 174 175 164 156 146 146 143 116 79 350 352 348 344 344 343 342 341 341 338 335 334 332 332 330 327 326
82 118 143 151 146 143 136 140 139 138 155 138 135 144 263 317 293 210 173 172 174 163 174 168 152 117 332 12 338 341 338 339 337 337 337 336 334 332 331 331 329 326 325
2 140 159 160 154 148 149 151 149 145 163 165 122 136 154 216 260 279 211 186 187 178 188 191 171 209 259 45 329 333 339 337 333 334 334 333 331 330 330 331 329 326 324
227 148 159 166 161 153 148 157 151 154 146 165 188 64 158 155 144 284 294 256 211 211 201 193 169 234 247 341 339 339 341 336 334 332 332 331 330 329 329 329 329 328 325
336 122 172 162 158 149 144 148 150 148 154 161 159 152 305 11 86 150 253 296 302 266 209 194 169 269 324 353 327 334 338 334 331 330 330 329 329 328 328 328 328 327 324
156 61 120 142 150 148 147 159 158 146 138 125 122 129 141 147 172 134 212 267 289 282 266 218 163 117 355 358 340 340 333 329 329 329 329 328 327 327 327 327 327 327 325
195 221 89 137 143 144 148 145 140 150 138 133 137 134 112 143 139 129 154 254 295 285 285 277 193 91 1 349 326 333 325 327 328 327 327 327 328 326 326 326 326 326 325
190 147 149 169 154 144 140 141 138 139 124 131 133 137 125 82 74 129 151 162 303 303 301 288 321 45 344 332 327 333 317 325 327 326 326 327 327 326 326 326 326 326 326
150 142 139 140 136 142 145 138 136 153 140 137 141 140 138 110 75 70 120 149 166 269 278 285 323 320 333 331 327 319 307 318 325 326 325 325 325 325 325 326 326 326 326
156 149 132 124 138 149 144 137 132 137 139 139 144 142 143 150 119 84 140 201 175 198 262 280 296 312 324 329 321 315 305 323 323 325 325 325 325 325 326 326 325 326 326
141 131 140 146 156 157 147 143 146 142 146 145 143 150 160 156 138 135 130 217 240 201 255 290 298 317 319 316 318 315 308 308 314 324 327 326 324 326 327 328 327 327 327
138 133 134 145 145 142 140 147 151 150 149 150 155 151 160 140 153 179 190 227 255 236 231 287 305 322 316 313 315 318 323 324 316 321 326 326 326 327 329 329 328 328 328
119 117 120 128 130 120 123 132 144 146 153 154 151 151 160 141 172 223 232 257 272 306 286 282 304 316 314 321 324 322 323 319 322 321 324 326 328 328 329 329 329 329 330
111 114 118 121 119 115 124 132 141 143 139 140 146 156 156 151 184 207 221 264 284 322 320 301 300 309 313 320 327 328 328 329 324 321 323 328 327 328 328 329 330 331 330
76 92 100 104 97 97 128 134 137 139 139 142 144 148 145 148 176 197 198 224 231 251 291 295 305 317 316 328 325 322 325 324 315 318 326 322 322 321 325 326 330 332 331
79 81 86 96 98 107 140 149 142 139 141 147 144 129 149 170 168 322 341 349 353 245 254 266 294 300 305 310 314 325 328 329 320 332 331 317 323 320 321 321 329 333 334
93 96 89 95 101 127 143 155 153 126 133 148 147 143 144 116 104 149 337 10 356 332 311 275 274 283 292 302 312 317 320 313 300 309 322 308 317 316 320 326 332 336 340
86 90 93 94 78 58 80 100 131 113 115 131 141 143 151 141 105 71 47 21 348 342 334 331 272 282 295 297 291 299 300 303 295 301 324 305 313 315 320 319 332 343 344
74 77 89 98 93 70 66 53 75 105 112 100 113 133 132 125 77 52 59 36 6 355 1 357 345 339 341 347 353 350 338 335 323 317 333 320 313 318 312 310 328 340 340
80 79 68 74 89 89 82 65 59 111 121 112 75 75 97 89 59 52 74 86 344 328 343 350 356 355 352 354 359 354 322 322 323 317 337 337 320 333 322 311 321 332 335